Location: Alth�tten
(48.7833°N, 14.0500°E)
Time: 20:50:06
(UTC+00:00)

Daily predictions for brighter satellites

Satellite Brightness Start Highest point End
(mag) Time Altitude Azimuth Time Altitude Azimuth Time Altitude Azimuth
Cosmos 2322 3.8 18:26:50 10° NNW 18:32:31 73° ENE 18:38:10 10° SE
Cosmos 1726 Rocket 3.7 18:28:19 10° S 18:32:36 55° E 18:36:52 10° NNE
Cosmos 1825 3.1 18:29:32 10° N 18:32:54 30° ENE 18:36:15 10° SE
CZ-4C R/B 2.6 18:28:35 10° SW 18:33:36 70° NW 18:39:45 10° NE
Helios 1A Rocket 3.4 18:29:33 10° S 18:33:36 64° WSW 18:37:42 10° NNW
Cosmos 1302 Rocket 4.4 18:28:25 10° NNW 18:33:43 71° WSW 18:38:57 10° SSE
Ariane Rocket 3.3 18:29:31 10° SE 18:34:21 49° ENE 18:39:13 10° N
Cosmos 2344 4.0 18:27:49 10° S 18:34:34 37° ESE 18:41:31 10° NE
Cosmos 1269 Rocket 4.1 18:30:38 10° SSW 18:35:57 84° ESE 18:41:18 10° NNE
Cosmos 2228 3.1 18:34:33 10° S 18:38:54 86° W 18:43:15 10° N
MetOp-A 4.2 18:35:45 10° SSE 18:41:06 86° WSW 18:46:31 10° NNW
Cosmos 1408 2.6 18:38:01 10° N 18:41:34 59° ENE 18:45:04 10° SSE
Cosmos 482 Debris 2.9 18:39:40 10° WSW 18:42:30 83° SSE 18:44:34 10° ENE
RESURS DK-1 3.2 18:41:32 10° S 18:45:06 29° ESE 18:48:43 10° NE
Cosmos 1300 4.4 18:42:49 10° SW 18:46:24 39° WNW 18:50:00 10° N
SL-16 R/B 4.1 18:47:22 10° N 18:51:02 17° NE 18:54:41 10° ENE
Cosmos 2058 3.2 18:48:33 10° N 18:52:38 48° ENE 18:56:40 10° SSE
CZ-2C R/B 3.7 18:49:10 10° N 18:54:08 48° WNW 18:59:08 10° SW
Cosmos 1992 Rocket 4.0 18:50:50 10° NNW 18:56:04 80° ENE 19:01:18 10° SSE
DMSP B5D2-2 4.4 18:51:39 10° N 18:56:53 73° WNW 19:02:07 10° SSW
Cosmos 2360 Rocket 3.5 18:53:03 10° NW 18:58:16 39° WSW 19:03:26 10° S
Cosmos 2058 Rocket 3.0 18:54:15 10° S 18:58:33 64° E 19:02:53 10° NNE
ATLAS 3B R/B 2.9 18:52:07 10° NW 18:59:07 78° NE 19:05:56 12° SE
COSMOS 2428 2.7 18:56:14 10° NNW 19:02:01 83° ENE 19:07:46 10° SSE
Cosmos 1953 Rocket 4.0 18:57:52 10° NNW 19:02:12 63° W 19:06:28 10° S
COSMOS 2487 2.3 18:59:10 10° SSW 19:02:34 88° ESE 19:06:00 10° NNE
USA 186 3.2 19:00:22 10° SSW 19:03:24 37° W 19:06:21 10° NNW
USA 215 3.5 18:58:18 11° ESE 19:04:38 68° NNE 19:11:08 10° NW
SME Rocket 4.0 19:01:22 10° N 19:05:04 53° WNW 19:09:33 10° SW
Cosmos 1092 Rocket 4.1 18:59:21 10° N 19:05:40 88° W 19:11:53 10° S
Cosmos 2151 4.4 19:02:58 10° NNE 19:06:24 23° ENE 19:08:41 15° ESE
Cosmos 1076 Rocket 4.1 19:06:03 10° N 19:10:12 40° ENE 19:13:19 16° SE
Cosmos 1818 3.8 19:07:24 10° S 19:12:34 46° ESE 19:17:47 10° NE
OPS 8737 4.4 19:10:01 10° NW 19:13:03 68° NE 19:15:35 19° SE
FALCON 9 DEB 3.7 19:10:28 10° SSW 19:13:37 36° SE 19:16:30 12° ENE
NOSS 0 Rocket 4.1 19:07:48 10° NNW 19:14:01 66° ENE 19:19:06 16° SE
Cosmos 909 Rocket 4.2 19:08:19 10° S 19:14:22 49° ESE 19:20:30 10° NE
ERS-2 4.1 19:11:03 10° N 19:14:22 33° WNW 19:17:40 10° SW
Cosmos 2219 Rocket 2.5 19:09:44 10° NNW 19:15:25 70° WSW 19:21:03 10° SSE
Resurs 01 Rocket 1.8 19:12:46 13° SSE 19:16:34 59° ENE 19:20:59 10° N
Cosmos 44 3.5 19:12:01 10° SSW 19:16:59 55° ESE 19:22:14 10° NE
ERS-1 Rocket 4.5 19:14:41 14° E 19:17:26 21° ENE 19:21:09 10° NNE
Cosmos 1455 2.2 19:16:08 10° SSW 19:19:53 80° W 19:23:39 10° N
ATLAS 5 CENTAUR R/B 4.0 19:20:53 10° W 19:24:21 23° NNW 19:28:13 10° NNE
Resurs 1-3 3.9 19:23:43 10° S 19:28:05 67° WSW 19:32:28 10° NNW
Cosmos 1633 3.4 19:25:35 10° N 19:28:53 32° ENE 19:30:05 25° ESE
Cosmos 1356 3.3 19:26:52 10° N 19:30:19 71° ENE 19:32:13 24° SSE
IGS 5A 3.4 19:27:42 19° SSE 19:30:35 66° ENE 19:34:43 10° N
Lacrosse 5 rocket 3.2 19:28:28 10° WNW 19:32:10 30° NNW 19:36:02 10° NE
ATLAS 5 CENTAUR R/B 2.8 19:30:50 10° W 19:32:16 18° SW 19:33:14 14° SSW
Cosmos 405 Rocket 2.7 19:30:38 10° N 19:34:41 85° E 19:37:21 20° SSE
Cosmos 2292 Rocket 4.5 19:28:03 10° N 19:35:19 72° ENE 19:39:37 17° SSE
BREEZE-M DEB (TANK) 4.3 19:22:49 10° W 19:38:55 85° N 19:42:11 18° E
Cosmos 1140 Rocket 4.2 19:38:38 23° SE 19:40:44 32° ESE 19:45:14 10° NE
IRIDIUM 106 4.3 19:36:08 13° S 19:40:48 66° E 19:45:59 10° N
SPOT 5 3.9 19:40:17 22° E 19:42:03 28° ENE 19:46:05 10° N
Cosmos 2279 Rocket 3.9 19:36:05 10° S 19:42:14 75° E 19:48:26 10° NNE
Cosmos 2237 Rocket 2.3 19:36:38 10° NNW 19:42:17 67° ENE 19:45:36 25° SE
Exosat Rocket 4.2 19:36:19 10° NNW 19:42:54 62° WSW 19:47:11 15° S
Spot 2 Rocket 3.9 19:41:32 25° SE 19:44:13 48° ENE 19:49:06 10° N
BREEZE-M DEB (TANK) 3.7 19:40:02 10° W 19:44:29 67° S 19:48:44 18° E
BREEZE-M DEB (TANK) 4.2 19:42:53 10° WSW 19:46:24 89° S 19:56:59 10° E
SL-8 R/B 4.3 19:42:13 10° W 19:46:49 45° SSW 19:48:58 27° SSE
CZ-2C R/B 3.7 19:43:24 10° NNE 19:47:48 57° E 19:50:38 21° S
OBJECT-B 3.7 19:48:26 10° SW 19:50:30 16° W 19:52:35 10° NW
Terra 3.1 19:50:06 22° E 19:51:39 26° ENE 19:55:36 10° N
Meteor 2-14 Rocket 4.4 19:46:31 10° N 19:52:36 72° E 19:56:27 24° SSE
MetOp-B 4.1 19:52:09 21° SSE 19:55:48 87° WSW 20:01:13 10° NNW
Cosmos 2227 Rocket 2.7 19:57:04 28° SE 19:58:58 36° ESE 20:04:07 10° NE
SPOT 1/Viking Rocket 3.5 19:58:13 27° SSE 20:01:10 83° ENE 20:06:25 10° NNW
Cosmos 389 Rocket 2.6 20:00:14 20° SSW 20:02:30 73° WNW 20:06:05 10° N
Cosmos 2251 Rocket 3.9 19:57:31 10° SSW 20:02:51 66° WNW 20:08:12 10° NNE
Cosmos 2333 Rocket 4.0 20:00:39 10° NW 20:05:19 26° WSW 20:09:59 10° SSW
Cosmos 2297 Rocket 2.3 20:02:12 18° S 20:06:18 52° ESE 20:11:47 10° NE
Cosmos 2266 Rocket 4.0 19:59:57 10° N 20:06:22 71° E 20:09:47 29° SSE
SPOT 3 Rocket 4.2 20:03:45 16° S 20:07:46 54° W 20:12:52 10° NNW
Cosmos 1825 4.4 20:05:15 10° NW 20:08:14 23° W 20:11:13 10° SW
BREEZE-M DEB (TANK) 2.3 20:06:32 10° W 20:08:17 45° WSW 20:08:17 45° WSW
Cosmos 2219 3.3 20:05:52 24° S 20:08:57 50° ESE 20:14:21 10° NE
Cosmos 1190 Rocket 4.2 20:07:40 33° SSE 20:09:33 48° ESE 20:14:34 10° NNE
ATLAS 2AS CENTAUR R/B 3.7 20:02:35 10° WSW 20:10:21 56° NW 20:17:54 10° NE
ARIANE 5 R/B 2.5 20:09:20 41° SSE 20:10:48 76° ENE 20:15:12 10° N
Meteor 2-21 Rocket 4.3 20:07:08 10° N 20:13:14 80° E 20:16:20 31° SSE
Timation 2 Rocket 4.2 20:10:14 19° S 20:14:50 51° ESE 20:20:57 10° NE
Orbus 7S? 4.3 20:17:50 10° WSW 20:21:02 56° NNW 20:27:40 10° ENE
Cosmos 1763 Rocket 4.4 20:17:05 10° N 20:21:40 32° NE 20:22:57 28° E
RESURS DK-1 4.1 20:19:17 10° WSW 20:23:03 34° NW 20:26:52 10° NNE
CZ-4C R/B 4.4 20:18:36 10° WNW 20:23:18 26° NNW 20:28:47 10° NE
Genesis I 3.1 20:20:55 10° NW 20:24:56 76° NE 20:25:22 66° ESE
USA 245 3.6 20:24:37 41° SSW 20:25:40 56° WSW 20:29:01 10° NNW
Meteor 2-16 Rocket 4.4 20:20:29 10° N 20:26:41 85° E 20:29:25 36° SSE
Cosmos 676 Rocket 4.4 20:26:56 41° ESE 20:27:00 41° ESE 20:31:52 10° NE
Cosmos-2242 2.9 20:25:50 48° S 20:27:01 86° E 20:31:22 10° N
Cosmos 1408 Rocket 4.4 20:25:06 10° N 20:29:01 33° ENE 20:29:01 33° ENE
JB-3 4.2 20:26:52 10° NNE 20:31:00 69° ESE 20:31:09 68° ESE
Cosmos 1655 Rocket 4.3 20:27:57 10° NNW 20:34:12 66° W 20:37:46 26° SSW
SL-16 R/B 2.3 20:30:38 10° NNW 20:36:19 65° ENE 20:37:53 46° ESE
Cosmos 1980 4.4 20:31:56 10° NW 20:37:23 48° WSW 20:39:45 30° SSW
Cosmos 2151 4.1 20:39:48 10° NNW 20:43:51 40° W 20:45:17 30° SW
Meteor 2-3 Rocket 4.1 20:40:21 10° NNW 20:46:02 60° W 20:48:26 34° SSW
USA 215 3.6 20:45:38 37° S 20:47:49 51° SW 20:54:10 10° WNW
Cosmos 2344 4.2 20:41:16 10° WSW 20:48:33 58° NW 20:56:45 10° NE
ATLAS 3B R/B 4.2 20:43:26 10° WNW 20:49:18 29° WSW 20:53:13 18° SSW
Meteor 1-27 4.2 20:47:48 39° SSW 20:50:05 89° W 20:55:57 10° NNE
FALCON 9 DEB 4.1 20:47:04 10° W 20:49:44 45° WNW 20:49:44 45° WNW
Cosmos 2221 3.7 20:53:18 31° ENE 20:53:18 31° ENE 20:56:05 10° NNE
Resurs 01 Rocket 4.1 20:50:30 10° SW 20:53:27 17° W 20:56:25 10° NW
Cosmos 1553 Rocket 4.4 20:54:34 39° E 20:54:57 40° E 21:00:34 10° NNE
ERS-1 Rocket 3.2 20:54:40 50° SSW 20:55:47 65° WSW 21:00:49 10° NNW
Cosmos 407 Rocket 4.1 20:53:35 14° SW 20:57:51 55° WNW 21:02:57 10° NNE
Okean 3 Rocket 3.7 20:54:26 10° NNW 20:58:57 68° W 20:59:21 64° SW
Cosmos 1766 Rocket 3.8 20:59:01 10° NNW 21:03:18 60° W 21:03:29 59° WSW
Cosmos 1500 Rocket 4.4 20:59:57 10° N 21:03:43 40° NE 21:03:43 40° NE
Cosmos 1943 4.3 21:00:44 10° NNW 21:05:49 33° NE 21:07:11 29° ENE
Meteor 1-4 Rocket 3.8 21:10:11 38° N 21:10:11 38° N 21:12:32 10° N
Meteor 2-15 4.3 21:09:37 58° S 21:10:54 82° E 21:16:59 10° NNE
Lacrosse 5 rocket 3.2 21:08:28 10° NW 21:12:15 30° N 21:14:11 21° NE
Cosmos 1954 Rocket 3.9 21:12:16 64° SW 21:13:04 83° WNW 21:18:17 10° NNE
Meteor 2-2 Rocket 4.1 21:18:00 68° SE 21:18:25 71° E 21:24:08 10° NNE
Cosmos 1869 4.1 21:18:39 47° WNW 21:18:39 47° WNW 21:22:21 10° N
COSMOS 2455 2.7 21:18:15 68° SSE 21:18:46 72° ESE 21:24:46 10° NE
SPOT 5 3.7 21:19:30 37° WSW 21:19:59 38° W 21:24:25 10° NNW
Cosmos 2237 Rocket 3.9 21:21:34 10° NW 21:25:49 22° W 21:27:26 20° SW
SeaSat 1 3.3 21:21:20 10° NE 21:24:38 37° ENE 21:24:38 37° ENE
Terra 2.5 21:28:59 44° WSW 21:29:12 44° W 21:33:46 10° NNW
Timation 1 Rocket 4.3 21:33:37 57° SW 21:34:56 82° WNW 21:40:57 10° NNE
Cosmos 2082 3.7 21:39:13 64° WSW 21:40:00 76° WNW 21:45:40 10° NNE
Cosmos 2263 Rocket 3.2 21:42:46 33° ENE 21:42:46 33° ENE 21:46:19 10° NE
Cosmos 2227 Rocket 3.2 21:38:45 16° WSW 21:42:57 43° NW 21:48:23 10° NNE
Cosmos 468 Rocket 4.3 21:38:58 10° NNW 21:43:44 56° W 21:43:44 56° W
USA 229 DEB 4.0 21:36:47 10° NW 21:44:02 71° NE 21:46:08 50° ESE
USA 229 4.0 21:36:53 10° NW 21:44:08 71° NE 21:46:15 50° ESE
Cosmos 1842 Rocket 4.3 21:49:34 52° NW 21:49:34 52° NW 21:53:20 10° N
Cosmos 1603 3.8 21:44:45 10° NNW 21:50:29 67° ENE 21:50:37 66° ENE
Cosmos 2297 Rocket 3.8 21:45:33 10° WSW 21:50:36 33° NW 21:55:41 10° NNE
Cosmos 841 Rocket 3.5 21:46:41 10° NNW 21:51:30 74° N 21:51:30 74° N
Cosmos 1745 Rocket 3.8 21:49:44 10° N 21:56:06 89° W 21:56:33 79° S
Cosmos 1814 Rocket 4.2 21:54:28 10° NNW 21:59:24 67° NNE 21:59:24 67° NNE
Cosmos 1709 Rocket 4.0 21:55:41 10° N 22:01:53 63° ENE 22:02:05 63° E
NOSS 3-1 (A) 4.0 21:54:32 10° NW 22:01:55 80° NE 22:04:05 54° ESE
Cosmos 921 Rocket 4.0 21:58:36 10° NNW 22:01:48 47° NNW 22:01:48 47° NNW
Cosmos 1763 Rocket 4.4 21:58:50 10° NW 22:02:58 38° W 22:02:58 38° W
Meteor 1-25 Rocket 4.3 22:02:19 10° N 22:07:50 67° ENE 22:07:50 67° ENE
S3M 3.9 22:08:54 79° SSW 22:09:20 86° WNW 22:15:47 10° N
Spot 4 4.3 22:11:46 59° NW 22:11:46 59° NW 22:15:46 10° NNW
Cosmos 883 Rocket 4.5 22:14:36 70° E 22:14:36 70° E 22:20:44 10° NNE
SL-16 R/B 3.8 22:15:34 10° NW 22:19:46 23° W 22:19:46 23° W
Sich 1 4.3 22:18:09 10° NNW 22:20:54 39° NNW 22:20:54 39° NNW
Cosmos 540 Rocket 4.3 22:18:06 10° NNW 22:22:04 43° WNW 22:22:04 43° WNW
NOSS 3-1 (C) 4.2 22:20:39 10° NW 22:28:00 58° WSW 22:28:42 57° SW
Meteor 1-20 Rocket 4.3 22:23:53 10° NNW 22:29:20 76° NW 22:29:20 76° NW
Cosmos 2221 4.4 22:30:07 23° WNW 22:30:07 23° WNW 22:33:17 10° NNW
Cosmos 2227 4.3 22:34:45 73° NNE 22:34:45 73° NNE 22:39:56 10° NNE
Cosmos 1633 Rocket 4.3 22:31:52 10° N 22:34:39 38° N 22:34:39 38° N
Cosmos 44 Rocket 4.3 22:36:36 42° WNW 22:37:16 44° NW 22:42:17 10° NNE
Aureole 1 Rocket 4.1 22:38:07 53° WNW 22:38:07 53° WNW 22:42:47 10° NNE
ALOS 2 4.0 22:49:56 34° NW 22:49:56 34° NW 22:52:38 10° NNW
Cosmos 1943 3.9 22:44:39 10° NW 22:48:59 44° WNW 22:48:59 44° WNW
Lacrosse 5 rocket 3.2 22:47:38 10° NW 22:49:48 28° NW 22:49:48 28° NW
ATLAS 5 CENTAUR R/B 4.2 22:52:57 10° NNW 22:57:08 24° NNE 23:01:55 10° E
Thor Agena Rocket 4.0 22:54:33 10° NNE 22:58:37 56° NNE 22:58:37 56° NNE
SeaSat 1 3.9 22:59:09 10° NNE 23:03:30 32° NW 23:04:24 29° WNW
COSMOS 2455 4.4 23:01:18 16° W 23:05:14 31° NW 23:10:33 10° NNE
Cosmos 2315 Rocket 4.2 23:10:31 58° W 23:10:46 59° WNW 23:17:04 10° N
Iridium 4 Rocket 4.2 23:11:57 48° NW 23:11:57 48° NW 23:16:08 10° N
Cosmos 2184 Rocket 3.9 23:06:09 10° N 23:12:32 80° E 23:12:34 80° E
Cosmos 968 Rocket 3.9 23:24:12 62° NNE 23:24:12 62° NNE 23:28:36 10° NNE
Cosmos 2263 Rocket 3.1 23:24:25 37° WNW 23:25:06 39° NW 23:30:19 10° NNE
USA 281 3.1 23:33:03 75° WSW 23:33:07 76° WSW 23:39:44 10° NNW
NOSS 2-2 (D) 4.3 23:30:57 10° NW 23:36:03 85° NNW 23:36:03 85° NNW
Cosmos 1844 Rocket 2.9 23:39:31 64° ENE 23:39:31 64° ENE 23:44:22 10° NNE
SL-4 R/B 3.8 23:41:44 32° ENE 23:41:44 32° ENE 23:44:26 10° E
Cosmos 1486 Rocket 4.3 23:40:25 65° N 23:40:25 65° N 23:45:06 10° NNE
Cosmos 1295 Rocket 4.4 23:35:48 10° N 23:42:04 78° E 23:42:22 76° ESE
Cosmos 2074 Rocket 4.1 23:37:22 10° NNW 23:43:22 62° W 23:43:22 62° W
Helios 1A 4.3 23:45:17 40° N 23:45:17 40° N 23:48:06 10° N
Meteor 2-6 Rocket 4.3 23:48:14 68° NNW 23:48:14 68° NNW 23:53:05 10° N
Cosmos 2082 Rocket 4.3 23:45:33 10° N 23:49:58 23° NE 23:54:21 10° E
SJ 16-02 3.6 23:56:01 17° E 23:56:01 17° E 23:58:19 10° NE
